Simultaneous Nadir Overpasses (SNOs) Predictions

Prediction of SNOs between FY3D and NOAA-19 Satellite Orbit:

Table of predicted SNOs for the next 14.0 days since TLE Epoch: 6/15/2019
Index Date (FY3D) Time (FY3D) Lat,Lon (FY3D) SZA (FY3D ) Date (NOAA-19) Time (NOAA-19) Lat,Lon (NOAA-19) SZA (NOAA-19 ) Distance(km) Time Diff (sec)
1 06/25/2019 15:37:23 80.08, -92.66 59.04 06/25/2019 15:36:12 80.10, -92.54 59.08 3.13 71
2 06/25/2019 16:28:08 -80.08, 74.64 120.96 06/25/2019 16:27:19 -80.08, 74.47 120.92 3.33 49
3 06/25/2019 17:18:52 80.07,-117.98 59.03 06/25/2019 17:18:13 80.09,-118.10 59.08 3.27 39
4 06/25/2019 18:09:38 -80.10, 49.02 120.91 06/25/2019 18:09:20 -80.08, 48.92 120.91 3.21 18
5 06/25/2019 19:00:22 80.10,-143.61 59.08 06/25/2019 19:00:14 80.09,-143.66 59.09 1.17 8
6 06/25/2019 19:51:07 -80.10, 23.69 120.92 06/25/2019 19:51:20 -80.10, 23.68 120.92 0.28 13
7 06/25/2019 20:41:51 80.09,-168.93 59.08 06/25/2019 20:42:14 80.11,-168.89 59.07 1.96 23
8 06/25/2019 21:32:35 -80.09, -1.63 120.93 06/25/2019 21:33:19 -80.12, -1.56 120.94 2.89 44
9 06/25/2019 22:23:20 80.12, 165.44 59.13 06/25/2019 22:24:14 80.11, 165.55 59.08 2.54 54




NCC Satellite Simultaneous Nadir Overpasses (SNOs) Prediction Service
